[[{"header":{"parameterUnit":"m.s-1","parameterCategory":1,"la1":30.2991,"la2":30.254,"lo1":-89.0895,"lo2":-89.0444,"dy":0.0017,"dx":0.0017,"nx":28,"ny":28,"refTime":"2025-11-11T09:00:00:Z","depth":0,"parameterNumber":2,"parameterNumberName":"U-component_of_WINDS"},"data":[0,0,0,0,0,0,0,0,0,0,0,0,0,0,0,0,0,0,0,0,0,0,0,0,0,0,0,0,0,0,0,0,0,0,0,0,0,0,0,0,0,0,0,0,0,0,0,0,0,0,0,0,0,0,0,0,0,0,-3.4088,-3.4088,0,-3.4107,-3.4107,-3.4107,-3.4042,-3.404,-3.4038,-3.4036,-3.4055,-3.4057,-3.4059,0,0,0,0,0,0,0,0,0,0,0,0,0,-3.3993,-3.3995,-3.4088,-3.4088,-3.4088,-3.4107,-3.4107,-3.4108,-3.4042,-3.404,-3.4038,-3.4035,-3.4054,-3.4057,-3.406,0,0,0,0,0,0,0,0,0,0,0,0,0,-3.4025,-3.3995,-3.4087,-3.4058,-3.4055,-3.4107,-3.4107,-3.4108,-3.4043,-3.404,-3.4037,-3.4034,-3.4053,-3.4056,-3.406,-3.414,0,0,-3.4071,-3.4072,0,0,0,0,0,0,0,0,-3.4023,-3.4029,-3.4062,-3.406,-3.4057,-3.4069,-3.408,-3.4119,-3.4044,-3.4048,-3.4036,-3.4033,-3.4062,-3.4064,-3.4074,-3.4141,-3.4142,-3.4071,-3.4073,-3.4074,-3.4075,0,0,0,0,0,0,0,-3.4021,-3.4027,-3.4095,-3.4063,-3.406,-3.4043,-3.4045,-3.4087,-3.4071,-3.4047,-3.4042,-3.4046,-3.406,-3.4071,-3.4074,-3.4142,-3.4071,-3.4074,-3.4076,-3.4077,-3.4276,-3.4279,0,0,0,0,0,0,-3.4023,-3.4026,-3.4095,-3.4096,-3.4033,-3.4047,-3.4049,-3.4068,-3.407,-3.4068,-3.4048,-3.4043,-3.4067,-3.407,-3.4075,-3.4169,-3.4074,-3.4078,-3.408,-3.4273,-3.4277,-3.4281,0,0,0,0,0,0,-3.4021,-3.403,-3.4094,-3.406,-3.4067,-3.4052,-3.4075,-3.407,-3.4081,-3.4071,-3.4068,-3.4063,-3.4065,-3.407,-3.4125,-3.4169,-3.4079,-3.4082,-3.4269,-3.4274,-3.4279,-3.4359,0,0,0,0,0,0,-3.4019,-3.403,-3.406,-3.4061,-3.4069,-3.4144,-3.4077,-3.4073,-3.4088,-3.4081,-3.4084,-3.4082,-3.4063,-3.412,-3.4128,-3.4172,-3.4085,-3.4265,-3.4272,-3.4277,-3.4352,-3.4365,-3.4377,0,0,0,0,0,-3.4016,-3.4082,-3.4062,-3.4071,-3.4107,-3.4147,-3.4151,-3.4128,-3.4092,-3.4122,-3.4116,-3.4082,-3.4163,-3.4126,-3.4135,-3.418,-3.4262,-3.427,-3.4277,-3.4346,-3.4363,-3.4377,0,0,0,0,0,0,-3.4085,-3.4081,-3.4059,-3.4128,-3.4138,-3.4135,-3.4173,-3.4146,-3.4167,-3.4159,-3.413,-3.4131,-3.4191,-3.4191,-3.415,-3.4259,-3.4206,-3.4216,-3.4256,-3.4272,-3.4284,-3.4282,-3.4088,0,0,0,0,0,-3.4109,-3.4142,-3.4136,-3.4197,-3.4203,-3.4188,-3.4204,-3.4186,-3.4195,-3.4199,-3.4197,-3.4207,-3.4234,-3.4253,-3.4278,-3.4352,-3.4351,-3.4388,-3.44,-3.4411,-3.4419,-3.4458,-3.4473,-3.4304,-3.4304,-3.4304,0,0,-3.4157,-3.4159,-3.4182,-3.4211,-3.4217,-3.4252,-3.4192,-3.4231,-3.4256,-3.4205,-3.4256,-3.4255,-3.4264,-3.4329,-3.4358,-3.4331,-3.4466,-3.442,-3.4428,-3.4431,-3.4467,-3.4483,-3.4497,-3.4309,-3.4308,-3.4307,0,0,-3.4263,-3.4268,-3.4319,-3.4327,-3.4337,-3.4326,-3.4339,-3.4341,-3.4338,-3.439,-3.4352,-3.4382,-3.443,-3.4438,-3.4449,-3.4559,-3.4528,-3.4568,-3.4634,-3.4672,-3.4685,-3.4697,-3.4736,-3.475,-3.4576,-3.4577,-3.4577,0,-3.4322,-3.4373,-3.4349,-3.4391,-3.4405,-3.4361,-3.4412,-3.4421,-3.4438,-3.4449,-3.4419,-3.4479,-3.4483,-3.4549,-3.4576,-3.4586,-3.4599,-3.4567,-3.4685,-3.4697,-3.4707,-3.4744,-3.4759,-3.4581,-3.4581,-3.458,-3.458,0,-3.4445,-3.4481,-3.4521,-3.454,-3.4558,-3.4605,-3.4587,-3.4609,-3.4589,-3.4582,-3.4635,-3.4638,-3.4662,-3.4677,-3.4658,-3.474,-3.4724,-3.469,-3.4637,-3.4729,-3.4762,-3.4776,-3.4588,-3.4586,-3.4585,-3.4584,0,0,-3.4594,-3.46,-3.4615,-3.4623,-3.4632,-3.4659,-3.4703,-3.4728,-3.4747,-3.4761,-3.4797,-3.484,-3.481,-3.4822,-3.4803,-3.4837,-3.4924,-3.48,-3.4799,-3.4822,-3.5015,-3.5039,-3.5056,-3.4904,-3.4907,-3.4909,-3.5014,0,-3.4698,-3.4774,-3.4754,-3.483,-3.4863,-3.4823,-3.4862,-3.4871,-3.4866,-3.4892,-3.4886,-3.4916,-3.4874,-3.4881,-3.4913,-3.4907,-3.4962,-3.4899,-3.4937,-3.4939,-3.4935,-3.5074,-3.5099,-3.5198,-3.5027,-3.5029,-3.5031,0,-3.4828,-3.4848,-3.4928,-3.4932,-3.4945,-3.498,-3.5002,-3.5028,-3.5038,-3.5031,-3.5046,-3.5021,-3.5064,-3.5012,-3.5071,-3.5029,-3.5043,-3.5043,-3.5046,-3.5048,-3.4989,-3.5078,-3.5229,-3.5243,-3.5052,-3.505,-3.5048,0,-3.4929,-3.4975,-3.5029,-3.5038,-3.5043,-3.5069,-3.5073,-3.508,-3.5096,-3.5115,-3.5125,-3.5149,-3.5161,-3.518,-3.5162,-3.5125,-3.5224,-3.517,-3.5219,-3.522,-3.5241,-3.5239,-3.5395,-3.5252,-3.5252,-3.5251,-3.5251,0,-3.5046,-3.5096,-3.5074,-3.5107,-3.5162,-3.5139,-3.5194,-3.5193,-3.52,-3.5231,-3.5198,-3.5228,-3.5203,-3.5232,-3.5218,-3.5269,-3.5275,-3.5271,-3.5266,-3.5273,-3.5273,-3.5281,-3.5273,-3.5255,-3.5255,-3.5254,-3.5253,0,-3.5166,-3.5154,-3.521,-3.5211,-3.5213,-3.5253,-3.5254,-3.5284,-3.5277,-3.5318,-3.5326,-3.5314,-3.5345,-3.533,-3.5362,-3.5353,-3.5419,-3.5405,-3.5416,-3.5412,-3.5461,-3.5457,-3.5626,-3.5647,-3.5492,-3.5493,-3.5495,0,-3.5241,-3.5279,-3.5285,-3.5304,-3.531,-3.5342,-3.5359,-3.5337,-3.5356,-3.5371,-3.54,-3.5428,-3.545,-3.5502,-3.5496,-3.5521,-3.5507,-3.5565,-3.5511,-3.5517,-3.5507,-3.5505,-3.5508,-3.5576,-3.5578,-3.5579,-3.558,0,-3.5376,-3.5368,-3.5394,-3.5419,-3.544,-3.5458,-3.5473,-3.549,-3.5469,-3.5492,-3.5524,-3.5542,-3.5575,-3.5604,-3.5626,-3.5629,-3.5601,-3.5598,-3.561,-3.5617,-3.5621,-3.5619,-3.5444,-3.5594,-3.5592,-3.5591,-3.5591,-3.559,-3.5475,-3.5507,-3.5516,-3.5547,-3.5556,-3.5571,-3.56,-3.5596,-3.5623,-3.5649,-3.5635,-3.5673,-3.5682,-3.5708,-3.5715,-3.5744,-3.572,-3.5739,-3.5743,-3.5748,-3.5754,-3.5618,-3.5748,-3.5747,-3.5747,-3.5746,-3.5746,0,-3.5607,-3.5612,-3.564,-3.5662,-3.5686,-3.5659,-3.5675,-3.5696,-3.573,-3.5741,-3.5764,-3.5801,-3.5829,-3.5826,-3.5851,-3.5875,-3.5863,-3.5882,-3.5879,-3.588,-3.5774,-3.576,-3.5891,-3.5891,-3.5891,-3.5891,-3.5891,-3.5891,-3.5679,-3.5731,-3.5725,-3.5781,-3.5785,-3.5822,-3.5833,-3.5847,-3.5856,-3.5899,-3.5922,-3.592,-3.5926,-3.5952,-3.5976,-3.5974,-3.5985,-3.6009,-3.6002,-3.5902,-3.5888,-3.5874,-3.5861,-3.6011,-3.6012,-3.6106,-3.6107,-3.6108]},{"header":{"parameterUnit":"m.s-1","parameterCategory":1,"la1":30.2991,"la2":30.254,"lo1":-89.0895,"lo2":-89.0444,"dy":0.0017,"dx":0.0017,"nx":28,"ny":28,"refTime":"2025-11-11T09:00:00:Z","depth":0,"parameterNumber":3,"parameterNumberName":"V-component_of_WINDS"},"data":[0,0,0,0,0,0,0,0,0,0,0,0,0,0,0,0,0,0,0,0,0,0,0,0,0,0,0,0,0,0,0,0,0,0,0,0,0,0,0,0,0,0,0,0,0,0,0,0,0,0,0,0,0,0,0,0,0,0,-1.6907,-1.6908,0,-1.6956,-1.6957,-1.6957,-1.6925,-1.6923,-1.6922,-1.692,-1.6972,-1.6974,-1.6977,0,0,0,0,0,0,0,0,0,0,0,0,0,-1.6785,-1.6787,-1.6907,-1.6908,-1.6908,-1.6956,-1.6957,-1.6957,-1.6925,-1.6923,-1.6921,-1.6919,-1.6971,-1.6974,-1.6977,0,0,0,0,0,0,0,0,0,0,0,0,0,-1.6836,-1.6788,-1.6907,-1.6898,-1.6897,-1.6956,-1.6957,-1.6958,-1.6925,-1.6923,-1.6921,-1.6919,-1.697,-1.6974,-1.6978,-1.7048,0,0,-1.699,-1.6992,0,0,0,0,0,0,0,0,-1.6833,-1.6841,-1.6898,-1.6898,-1.6898,-1.6932,-1.6932,-1.6988,-1.6926,-1.6915,-1.692,-1.6917,-1.696,-1.6965,-1.6979,-1.7051,-1.7053,-1.6991,-1.6993,-1.6995,-1.6996,0,0,0,0,0,0,0,-1.683,-1.6839,-1.6926,-1.6899,-1.6899,-1.6891,-1.6896,-1.6943,-1.695,-1.6915,-1.6913,-1.6919,-1.696,-1.6975,-1.698,-1.7054,-1.6991,-1.6994,-1.6997,-1.6999,-1.7185,-1.7187,0,0,0,0,0,0,-1.6827,-1.6836,-1.6925,-1.6928,-1.686,-1.6895,-1.69,-1.6923,-1.6949,-1.6951,-1.6921,-1.6918,-1.6969,-1.6975,-1.6982,-1.7066,-1.6995,-1.6999,-1.7001,-1.7182,-1.7185,-1.7188,0,0,0,0,0,0,-1.6825,-1.6835,-1.6923,-1.6881,-1.6892,-1.69,-1.6926,-1.6925,-1.6941,-1.6953,-1.6954,-1.6936,-1.6968,-1.6976,-1.7032,-1.7067,-1.7001,-1.7005,-1.718,-1.7183,-1.7187,-1.7235,0,0,0,0,0,0,-1.6821,-1.6835,-1.6862,-1.6882,-1.6894,-1.6972,-1.6928,-1.6928,-1.6948,-1.6944,-1.6967,-1.6969,-1.6967,-1.7026,-1.7036,-1.7072,-1.7008,-1.7176,-1.7181,-1.7186,-1.723,-1.724,-1.7248,0,0,0,0,0,-1.6817,-1.6874,-1.6863,-1.6874,-1.6928,-1.6974,-1.6981,-1.6977,-1.6951,-1.6978,-1.6986,-1.6968,-1.7062,-1.7032,-1.7043,-1.7081,-1.7174,-1.718,-1.7185,-1.7226,-1.7238,-1.7248,0,0,0,0,0,0,-1.6858,-1.6876,-1.6865,-1.693,-1.6951,-1.6969,-1.7003,-1.699,-1.7018,-1.7013,-1.7007,-1.7013,-1.7071,-1.7081,-1.7048,-1.715,-1.7114,-1.7122,-1.7141,-1.7152,-1.7161,-1.7158,-1.7011,0,0,0,0,0,-1.6875,-1.691,-1.6924,-1.6981,-1.6991,-1.6995,-1.7015,-1.701,-1.7032,-1.704,-1.7052,-1.7074,-1.7108,-1.7131,-1.7163,-1.7231,-1.7236,-1.7262,-1.7271,-1.7279,-1.7286,-1.7322,-1.7334,-1.7206,-1.7206,-1.7206,0,0,-1.6909,-1.6924,-1.6947,-1.6989,-1.7005,-1.7042,-1.7003,-1.7044,-1.7072,-1.7047,-1.71,-1.7109,-1.7133,-1.7195,-1.7223,-1.7206,-1.7322,-1.7286,-1.7291,-1.7295,-1.7329,-1.7341,-1.7352,-1.721,-1.7209,-1.7209,0,0,-1.6992,-1.7006,-1.7054,-1.707,-1.7094,-1.7096,-1.7107,-1.7127,-1.7132,-1.7185,-1.7167,-1.7199,-1.7258,-1.7276,-1.7292,-1.738,-1.7365,-1.739,-1.7437,-1.7473,-1.7483,-1.7492,-1.7523,-1.7534,-1.7397,-1.7398,-1.7398,0,-1.7032,-1.7087,-1.7081,-1.7123,-1.7142,-1.712,-1.7168,-1.7184,-1.7217,-1.7231,-1.721,-1.7283,-1.7298,-1.7363,-1.7385,-1.7399,-1.7412,-1.7388,-1.7482,-1.7491,-1.7499,-1.7528,-1.754,-1.7401,-1.74,-1.74,-1.74,0,-1.7136,-1.7174,-1.721,-1.7242,-1.7265,-1.731,-1.731,-1.7334,-1.7326,-1.733,-1.7384,-1.74,-1.7435,-1.745,-1.7444,-1.7515,-1.7503,-1.7482,-1.7446,-1.7514,-1.7542,-1.7553,-1.7405,-1.7404,-1.7403,-1.7402,0,0,-1.7246,-1.7273,-1.7286,-1.73,-1.7324,-1.7353,-1.7397,-1.743,-1.7451,-1.7474,-1.7511,-1.756,-1.7541,-1.756,-1.7555,-1.7586,-1.7654,-1.7561,-1.7562,-1.7578,-1.7733,-1.7749,-1.7762,-1.7643,-1.7645,-1.7647,-1.7731,0,-1.733,-1.7406,-1.7401,-1.7473,-1.7508,-1.7487,-1.7525,-1.7544,-1.7548,-1.7579,-1.7584,-1.7619,-1.7591,-1.7602,-1.7632,-1.7639,-1.7685,-1.7633,-1.7677,-1.7679,-1.7673,-1.7776,-1.7793,-1.7872,-1.7742,-1.7744,-1.7745,0,-1.7438,-1.7464,-1.7539,-1.7557,-1.7571,-1.7606,-1.7635,-1.7665,-1.7685,-1.7686,-1.7707,-1.7696,-1.774,-1.7702,-1.7763,-1.7728,-1.7745,-1.7751,-1.7754,-1.7759,-1.7717,-1.7784,-1.7897,-1.7909,-1.7762,-1.776,-1.7759,0,-1.7511,-1.7565,-1.7617,-1.7629,-1.7651,-1.7676,-1.7686,-1.7704,-1.7724,-1.775,-1.7763,-1.7794,-1.7811,-1.7835,-1.7832,-1.7805,-1.7894,-1.7856,-1.7896,-1.7896,-1.7917,-1.7915,-1.8034,-1.7927,-1.7927,-1.7927,-1.7927,0,-1.7605,-1.7652,-1.765,-1.7682,-1.7733,-1.7726,-1.7778,-1.7785,-1.7801,-1.7834,-1.7818,-1.7849,-1.7844,-1.7876,-1.7874,-1.7924,-1.7932,-1.7934,-1.7934,-1.7936,-1.7936,-1.7948,-1.7943,-1.793,-1.7929,-1.7929,-1.7928,0,-1.7696,-1.7696,-1.7751,-1.7767,-1.7772,-1.7809,-1.7823,-1.7853,-1.7856,-1.7898,-1.7907,-1.7912,-1.7947,-1.7947,-1.7989,-1.7988,-1.8049,-1.8042,-1.8042,-1.8041,-1.8081,-1.8077,-1.8212,-1.8229,-1.8111,-1.8112,-1.8113,0,-1.7756,-1.7792,-1.7811,-1.7831,-1.7843,-1.7877,-1.7897,-1.7891,-1.7912,-1.7938,-1.7965,-1.7999,-1.8026,-1.8084,-1.8091,-1.8123,-1.8116,-1.8161,-1.8121,-1.8122,-1.8117,-1.8115,-1.8118,-1.8169,-1.8171,-1.8172,-1.8173,0,-1.7863,-1.7861,-1.789,-1.792,-1.7944,-1.7967,-1.7988,-1.8006,-1.8002,-1.8028,-1.8064,-1.8085,-1.8126,-1.816,-1.819,-1.82,-1.8186,-1.8185,-1.8196,-1.8199,-1.8198,-1.8199,-1.8064,-1.8182,-1.8181,-1.818,-1.818,-1.818,-1.794,-1.7971,-1.7989,-1.8022,-1.8037,-1.8057,-1.8085,-1.8091,-1.8121,-1.8154,-1.8149,-1.8189,-1.8208,-1.8246,-1.8259,-1.8291,-1.8275,-1.8291,-1.8295,-1.8299,-1.8304,-1.8192,-1.8296,-1.8296,-1.8296,-1.8295,-1.8295,0,-1.8046,-1.8056,-1.8087,-1.8117,-1.8142,-1.8126,-1.8148,-1.8171,-1.8206,-1.8225,-1.8251,-1.8293,-1.8325,-1.8335,-1.8366,-1.8389,-1.8384,-1.8398,-1.8396,-1.8399,-1.8316,-1.8303,-1.8402,-1.8402,-1.8402,-1.8402,-1.8402,-1.8402,-1.8104,-1.8155,-1.8155,-1.8212,-1.8222,-1.8261,-1.8275,-1.8293,-1.8307,-1.8354,-1.8381,-1.8386,-1.8401,-1.8433,-1.8463,-1.8464,-1.8477,-1.8494,-1.8493,-1.8416,-1.8405,-1.8395,-1.8383,-1.8497,-1.8497,-1.8574,-1.8574,-1.8575]}]]